| time (UTC) | temp C | wind direction | speed KPH | gust KPH | rain 1hr cm | rain 24hr cm | rain mn cm | humidity % | barometer mb |
| 20260507202026 | 15 | 203 | 20.9 | 38.6 | 0.00 | 0.00 | 0.13 | 58 | 1000.7 |
| 20260507201521 | 15 | 203 | 19.3 | 40.2 | 0.00 | 0.00 | 0.13 | 57 | 1000.6 |
| 20260507201006 | 15 | 203 | 24.1 | 43.5 | 0.00 | 0.00 | 0.13 | 57 | 1000.7 |
| 20260507200459 | 15 | 180 | 25.7 | 43.5 | 0.00 | 0.00 | 0.13 | 57 | 1000.6 |
| 20260507195444 | 15 | 180 | 33.8 | 43.5 | 0.00 | 0.00 | 0.13 | 55 | 1000.2 |
| 20260507194928 | 15 | 203 | 27.4 | 43.5 | 0.00 | 0.00 | 0.13 | 56 | 1000.1 |
| 20260507193902 | 15 | 203 | 30.6 | 49.9 | 0.00 | 0.00 | 0.13 | 55 | 1000.0 |
| 20260507193752 | 15 | 180 | 22.5 | 38.6 | 0.00 | 0.00 | 0.13 | 55 | 1000.7 |
| 20260507193401 | 16 | 203 | 29.0 | 48.3 | 0.00 | 0.00 | 0.13 | 55 | 999.6 |
| 20260507192845 | 16 | 203 | 22.5 | 46.7 | 0.00 | 0.00 | 0.13 | 55 | 999.6 |
| 20260507192341 | 16 | 203 | 32.2 | 43.5 | 0.00 | 0.00 | 0.13 | 53 | 999.4 |
| 20260507191320 | 16 | 158 | 33.8 | 54.7 | 0.00 | 0.00 | 0.13 | 52 | 999.1 |
| 20260507190812 | 16 | 203 | 33.8 | 48.3 | 0.00 | 0.00 | 0.13 | 51 | 999.1 |
| 20260507190302 | 16 | 180 | 35.4 | 51.5 | 0.00 | 0.00 | 0.13 | 52 | 999.1 |
| 20260507185747 | 16 | 180 | 30.6 | 51.5 | 0.00 | 0.00 | 0.13 | 52 | 998.6 |
| 20260507185246 | 17 | 135 | 29.0 | 46.7 | 0.00 | 0.00 | 0.13 | 51 | 998.9 |
| 20260507184730 | 17 | 180 | 27.4 | 46.7 | 0.00 | 0.00 | 0.13 | 51 | 999.1 |
| 20260507184222 | 17 | 180 | 32.2 | 46.7 | 0.00 | 0.00 | 0.13 | 51 | 999.2 |
| 20260507183707 | 17 | 180 | 27.4 | 48.3 | 0.00 | 0.00 | 0.13 | 51 | 999.1 |
| 20260507182644 | 17 | 180 | 33.8 | 46.7 | 0.00 | 0.00 | 0.13 | 50 | 998.9 |
| 20260507182137 | 17 | 203 | 30.6 | 46.7 | 0.00 | 0.00 | 0.13 | 50 | 998.6 |
| 20260507181118 | 17 | 203 | 29.0 | 43.5 | 0.00 | 0.00 | 0.13 | 51 | 999.6 |
| 20260507180605 | 17 | 180 | 25.7 | 48.3 | 0.00 | 0.00 | 0.13 | 52 | 999.7 |
| 20260507180110 | 17 | 180 | 33.8 | 48.3 | 0.00 | 0.00 | 0.13 | 52 | 999.8 |
| 20260507175042 | 16 | 203 | 27.4 | 43.5 | 0.00 | 0.00 | 0.13 | 54 | 1000.4 |
| 20260507174526 | 16 | 225 | 30.6 | 40.2 | 0.00 | 0.00 | 0.13 | 54 | 1000.4 |
| 20260507174018 | 16 | 203 | 25.7 | 40.2 | 0.00 | 0.00 | 0.13 | 54 | 1000.6 |
| 20260507173508 | 16 | 203 | 20.9 | 38.6 | 0.00 | 0.00 | 0.13 | 55 | 1000.8 |
| 20260507171938 | 15 | 180 | 27.4 | 35.4 | 0.00 | 0.00 | 0.13 | 55 | 1001.2 |
| 20260507171423 | 15 | 203 | 20.9 | 29.0 | 0.00 | 0.00 | 0.13 | 57 | 1001.5 |
| 20260507170920 | 15 | 203 | 17.7 | 29.0 | 0.00 | 0.00 | 0.13 | 59 | 1001.7 |
| 20260507170404 | 15 | 203 | 17.7 | 29.0 | 0.00 | 0.00 | 0.13 | 58 | 1001.9 |
| 20260507165857 | 15 | 203 | 19.3 | 29.0 | 0.00 | 0.00 | 0.13 | 59 | 1001.7 |
| 20260507165344 | 15 | 225 | 20.9 | 32.2 | 0.00 | 0.00 | 0.13 | 60 | 1002.0 |
| 20260507164835 | 15 | 203 | 22.5 | 32.2 | 0.00 | 0.00 | 0.13 | 59 | 1001.9 |
| 20260507164326 | 15 | 203 | 20.9 | 32.2 | 0.00 | 0.00 | 0.13 | 60 | 1001.5 |
| 20260507163819 | 15 | 203 | 19.3 | 32.2 | 0.00 | 0.00 | 0.13 | 60 | 1001.5 |
| 20260507163651 | 15 | 180 | 24.1 | 37.0 | 0.00 | 0.00 | 0.13 | 60 | 1001.3 |
| 20260507162754 | 15 | 158 | 17.7 | 37.0 | 0.00 | 0.00 | 0.13 | 60 | 1001.2 |
| 20260507162044 | 15 | 203 | 22.5 | 27.4 | 0.00 | 0.00 | 0.13 | 61 | 1001.1 |
| 20260507153435 | 14 | 203 | 16.1 | 29.0 | 0.00 | 0.00 | 0.13 | 64 | 1001.2 |
| 20260507152918 | 14 | 203 | 14.5 | 27.4 | 0.00 | 0.00 | 0.13 | 66 | 1001.3 |
| 20260507152406 | 13 | 203 | 20.9 | 27.4 | 0.00 | 0.00 | 0.13 | 66 | 1001.8 |
| 20260507151901 | 13 | 203 | 17.7 | 24.1 | 0.00 | 0.00 | 0.13 | 66 | 1001.8 |
| 20260507151344 | 13 | 225 | 16.1 | 25.7 | 0.00 | 0.00 | 0.13 | 68 | 1002.1 |
| 20260507150255 | 13 | 180 | 19.3 | 43.5 | 0.00 | 0.00 | 0.13 | 72 | 999.1 |
| 20260507145818 | 13 | 225 | 16.1 | 29.0 | 0.00 | 0.00 | 0.13 | 68 | 1001.9 |
| 20260507145307 | 13 | 225 | 17.7 | 25.7 | 0.00 | 0.00 | 0.13 | 68 | 1002.0 |
| 20260507144755 | 13 | 180 | 16.1 | 29.0 | 0.00 | 0.00 | 0.13 | 69 | 1001.9 |
| 20260507144248 | 13 | 180 | 17.7 | 29.0 | 0.00 | 0.00 | 0.13 | 68 | 1001.5 |
| 20260507144204 | 13 | 180 | 24.1 | 40.2 | 0.00 | 0.00 | 0.13 | 71 | 998.5 |
| 20260507143742 | 13 | 225 | 19.3 | 25.7 | 0.00 | 0.00 | 0.13 | 68 | 1001.5 |
| 20260507143226 | 13 | 203 | 17.7 | 25.7 | 0.00 | 0.00 | 0.13 | 68 | 1001.8 |
| 20260507142721 | 13 | 203 | 16.1 | 25.7 | 0.00 | 0.00 | 0.13 | 69 | 1001.9 |
| 20260507142204 | 13 | 203 | 17.7 | 27.4 | 0.00 | 0.00 | 0.13 | 68 | 1001.9 |
| 20260507141701 | 13 | 203 | 16.1 | 27.4 | 0.00 | 0.00 | 0.13 | 72 | 1001.6 |
| 20260507140856 | 13 | 135 | 25.7 | 43.5 | 0.00 | 0.00 | 0.13 | 72 | 998.2 |
| 20260507140639 | 13 | 203 | 17.7 | 25.7 | 0.00 | 0.00 | 0.13 | 71 | 1001.4 |
| 20260507140126 | 13 | 180 | 16.1 | 25.7 | 0.00 | 0.00 | 0.13 | 73 | 1001.5 |
| 20260507135835 | 13 | 180 | 27.4 | 43.5 | 0.00 | 0.00 | 0.13 | 72 | 998.2 |
| 20260507135620 | 13 | 180 | 11.3 | 22.5 | 0.00 | 0.00 | 0.13 | 72 | 1001.2 |
| 20260507135108 | 13 | 203 | 12.9 | 22.5 | 0.00 | 0.00 | 0.13 | 72 | 1001.4 |
| 20260507134600 | 13 | 180 | 12.9 | 20.9 | 0.00 | 0.00 | 0.13 | 71 | 1001.4 |
| 20260507134044 | 13 | 203 | 12.9 | 22.5 | 0.00 | 0.00 | 0.13 | 72 | 1001.5 |
| 20260507133536 | 13 | 180 | 16.1 | 25.7 | 0.00 | 0.00 | 0.13 | 70 | 1001.6 |
| 20260507133024 | 13 | 203 | 12.9 | 25.7 | 0.00 | 0.00 | 0.13 | 70 | 1001.5 |
| 20260507132525 | 13 | 203 | 19.3 | 25.7 | 0.00 | 0.00 | 0.13 | 68 | 1001.5 |
| 20260507132415 | 13 | 180 | 22.5 | 37.0 | 0.00 | 0.00 | 0.13 | 74 | 997.7 |
| 20260507131454 | 13 | 203 | 11.3 | 22.5 | 0.00 | 0.00 | 0.13 | 70 | 1001.0 |
| 20260507125928 | 13 | 203 | 14.5 | 32.2 | 0.00 | 0.00 | 0.13 | 71 | 1001.6 |
| 20260507125416 | 13 | 180 | 16.1 | 32.2 | 0.00 | 0.00 | 0.13 | 71 | 1001.6 |
| 20260507124901 | 13 | 203 | 19.3 | 27.4 | 0.00 | 0.00 | 0.13 | 70 | 1001.4 |
| 20260507123838 | 13 | 158 | 17.7 | 29.0 | 0.00 | 0.00 | 0.13 | 71 | 1001.0 |
| 20260507122822 | 13 | 158 | 17.7 | 33.8 | 0.00 | 0.00 | 0.13 | 72 | 1000.1 |
| 20260507122317 | 13 | 180 | 24.1 | 37.0 | 0.00 | 0.00 | 0.13 | 70 | 999.9 |
| 20260507121801 | 13 | 180 | 24.1 | 37.0 | 0.00 | 0.00 | 0.13 | 71 | 1000.2 |
| 20260507120741 | 13 | 180 | 17.7 | 33.8 | 0.00 | 0.00 | 0.13 | 72 | 999.9 |
| 20260507120239 | 13 | 135 | 17.7 | 33.8 | 0.00 | 0.00 | 0.13 | 71 | 999.6 |
| 20260507115720 | 13 | 158 | 17.7 | 35.4 | 0.00 | 0.00 | 0.13 | 72 | 999.3 |
| 20260507115133 | 14 | 113 | 17.7 | 33.8 | 0.00 | 0.00 | 0.13 | 76 | 998.1 |
| 20260507114707 | 13 | 203 | 25.7 | 43.5 | 0.00 | 0.00 | 0.13 | 72 | 998.8 |
| 20260507113645 | 13 | 180 | 24.1 | 38.6 | 0.00 | 0.00 | 0.13 | 73 | 998.3 |
| 20260507113133 | 13 | 180 | 20.9 | 43.5 | 0.00 | 0.00 | 0.13 | 72 | 998.0 |
| 20260507111559 | 13 | 90 | 27.4 | 38.6 | 0.00 | 0.00 | 0.13 | 73 | 997.7 |
| 20260507111053 | 13 | 203 | 24.1 | 37.0 | 0.00 | 0.00 | 0.13 | 74 | 997.7 |
| 20260507110033 | 13 | 158 | 24.1 | 37.0 | 0.00 | 0.00 | 0.13 | 73 | 997.6 |
| 20260507105514 | 13 | 113 | 25.7 | 37.0 | 0.00 | 0.00 | 0.13 | 72 | 997.7 |
| 20260507105021 | 13 | 180 | 25.7 | 37.0 | 0.00 | 0.00 | 0.13 | 73 | 997.2 |
| 20260507104453 | 13 | 203 | 20.9 | 33.8 | 0.00 | 0.00 | 0.13 | 76 | 997.2 |
| 20260507103952 | 14 | 203 | 17.7 | 32.2 | 0.00 | 0.00 | 0.13 | 77 | 997.7 |
| 20260507102927 | 14 | 158 | 17.7 | 33.8 | 0.00 | 0.00 | 0.13 | 79 | 998.3 |
| 20260507102424 | 14 | 180 | 20.9 | 29.0 | 0.00 | 0.00 | 0.13 | 78 | 998.6 |
| 20260507101910 | 14 | 180 | 17.7 | 29.0 | 0.00 | 0.00 | 0.13 | 79 | 998.8 |
| 20260507101358 | 15 | 180 | 17.7 | 29.0 | 0.00 | 0.00 | 0.13 | 80 | 998.5 |
| 20260507100853 | 15 | 203 | 17.7 | 29.0 | 0.00 | 0.00 | 0.13 | 81 | 998.2 |
| 20260507100341 | 15 | 158 | 17.7 | 32.2 | 0.00 | 0.00 | 0.13 | 83 | 998.4 |
| 20260507095313 | 15 | 113 | 17.7 | 35.4 | 0.00 | 0.00 | 0.13 | 84 | 998.6 |
| 20260507094809 | 15 | 158 | 17.7 | 35.4 | 0.00 | 0.00 | 0.13 | 84 | 998.9 |
| 20260507094254 | 15 | 225 | 24.1 | 33.8 | 0.00 | 0.00 | 0.13 | 82 | 998.8 |
| 20260507093632 | 16 | 203 | 30.6 | 46.7 | 0.00 | 0.00 | 0.13 | 81 | 998.9 |
| 20260507093206 | 16 | 180 | 24.1 | 40.2 | 0.13 | 0.13 | 0.13 | 84 | 999.0 |
| 20260507092644 | 16 | 180 | 20.9 | 38.6 | 0.13 | 0.13 | 0.13 | 85 | 999.5 |
| 20260507092141 | 16 | 180 | 24.1 | 43.5 | 0.13 | 0.13 | 0.13 | 87 | 999.1 |
| 20260507091624 | 17 | 180 | 24.1 | 43.5 | 0.13 | 0.13 | 0.13 | 90 | 999.1 |
| 20260507091121 | 17 | 158 | 20.9 | 25.7 | 0.13 | 0.13 | 0.13 | 93 | 999.2 |
| 20260507090620 | 17 | 203 | 17.7 | 25.7 | 0.13 | 0.13 | 0.13 | 94 | 999.7 |
| 20260507090114 | 17 | 135 | 12.9 | 24.1 | 0.13 | 0.13 | 0.13 | 94 | 999.6 |
| 20260507085545 | 17 | 158 | 12.9 | 27.4 | 0.13 | 0.13 | 0.13 | 95 | 999.1 |
| 20260507085051 | 17 | 158 | 12.9 | 27.4 | 0.13 | 0.13 | 0.13 | 94 | 999.0 |
| 20260507084525 | 17 | 135 | 8.0 | 17.7 | 0.10 | 0.10 | 0.10 | 94 | 999.4 |
| 20260507084017 | 17 | 180 | 12.9 | 24.1 | 0.00 | 0.00 | 0.00 | 93 | 999.8 |
| 20260507083502 | 17 | 225 | 12.9 | 25.7 | 0.00 | 0.00 | 0.00 | 93 | 1000.3 |
| 20260507083000 | 17 | 180 | 16.1 | 25.7 | 0.00 | 0.00 | 0.00 | 92 | 998.7 |
| 20260507082444 | 17 | 158 | 9.7 | 27.4 | 0.00 | 0.00 | 0.00 | 92 | 998.2 |
| 20260507081939 | 17 | 180 | 14.5 | 27.4 | 0.00 | 0.00 | 0.00 | 92 | 998.6 |
| 20260507074846 | 17 | 180 | 12.9 | 22.5 | 0.00 | 0.00 | 0.00 | 91 | 997.7 |
| 20260507074317 | 17 | 203 | 12.9 | 22.5 | 0.00 | 0.00 | 0.00 | 90 | 997.7 |
| 20260507073303 | 17 | 180 | 9.7 | 17.7 | 0.00 | 0.00 | 0.00 | 90 | 998.3 |
| 20260507072757 | 18 | 135 | 8.0 | 22.5 | 0.00 | 0.00 | 0.00 | 90 | 998.3 |
| 20260507072242 | 18 | 158 | 11.3 | 22.5 | 0.00 | 0.00 | 0.00 | 90 | 998.1 |
| 20260507071736 | 18 | 135 | 11.3 | 20.9 | 0.00 | 0.00 | 0.00 | 90 | 998.0 |
| 20260507071223 | 18 | 203 | 6.4 | 24.1 | 0.00 | 0.00 | 0.00 | 89 | 997.7 |
| 20260507071009 | 18 | 203 | 12.9 | 20.9 | 0.00 | 0.00 | 0.00 | 88 | 997.7 |
| 20260507070717 | 18 | 180 | 12.9 | 24.1 | 0.00 | 0.00 | 0.00 | 89 | 997.8 |
| 20260507070204 | 18 | 180 | 12.9 | 24.1 | 0.00 | 0.00 | 0.00 | 89 | 997.6 |
| 20260507065708 | 18 | 203 | 12.9 | 22.5 | 0.00 | 0.00 | 0.00 | 89 | 997.4 |
| 20260507065136 | 18 | 158 | 12.9 | 27.4 | 0.00 | 0.00 | 0.00 | 89 | 997.7 |
| 20260507064115 | 18 | 203 | 17.7 | 25.7 | 0.00 | 0.00 | 0.00 | 88 | 997.6 |
| 20260507063612 | 18 | 180 | 9.7 | 17.7 | 0.00 | 0.00 | 0.00 | 88 | 997.7 |
| 20260507062553 | 19 | 158 | 11.3 | 20.9 | 0.00 | 0.00 | 0.00 | 88 | 997.8 |
| 20260507061535 | 19 | 203 | 11.3 | 14.5 | 0.00 | 0.00 | 0.00 | 88 | 998.4 |
| 20260507061030 | 19 | 203 | 6.4 | 14.5 | 0.00 | 0.00 | 0.00 | 93 | 997.9 |
| 20260507060502 | 18 | 180 | 8.0 | 11.3 | 0.00 | 0.00 | 0.00 | 94 | 997.7 |
| 20260507060226 | 18 | 180 | 3.2 | 0.0 | 0.00 | 0.00 | 0.00 | 94 | 997.1 |
| 20260507055643 | 18 | 180 | 3.2 | 6.4 | 0.00 | 0.10 | 0.00 | 93 | 997.0 |
| 20260507055134 | 19 | 113 | 3.2 | 6.4 | 0.00 | 0.10 | 0.00 | 93 | 997.1 |
| 20260507054623 | 19 | 135 | 3.2 | 6.4 | 0.00 | 0.10 | 0.00 | 92 | 997.2 |
| 20260507054117 | 19 | 45 | 3.2 | 11.3 | 0.00 | 0.10 | 0.00 | 92 | 997.1 |
| 20260507053459 | 21 | 45 | 4.8 | 6.4 | 0.00 | 0.00 | 0.00 | 90 | 996.2 |
| 20260507053057 | 19 | 135 | 3.2 | 6.4 | 0.00 | 0.10 | 0.00 | 91 | 997.3 |
| 20260507052541 | 19 | 68 | 3.2 | 12.9 | 0.00 | 0.10 | 0.00 | 91 | 997.5 |
| 20260507052041 | 19 | 45 | 4.8 | 12.9 | 0.00 | 0.10 | 0.00 | 90 | 997.3 |
| 20260507051523 | 20 | 113 | 6.4 | 11.3 | 0.00 | 0.10 | 0.00 | 89 | 997.6 |
| 20260507051026 | 20 | 158 | 6.4 | 11.3 | 0.00 | 0.10 | 0.00 | 88 | 997.2 |
| 20260507050457 | 20 | 158 | 6.4 | 12.9 | 0.00 | 0.10 | 0.00 | 89 | 996.7 |
| 20260507045952 | 20 | 180 | 4.8 | 12.9 | 0.00 | 0.10 | 0.00 | 91 | 996.8 |
| 20260507045445 | 20 | 203 | 6.4 | 12.9 | 0.00 | 0.10 | 0.00 | 91 | 996.6 |
| 20260507044940 | 20 | 180 | 6.4 | 12.9 | 0.00 | 0.10 | 0.00 | 91 | 996.3 |
| 20260507044425 | 19 | 180 | 9.7 | 20.9 | 0.00 | 0.10 | 0.00 | 91 | 996.2 |
| 20260507043914 | 19 | 180 | 6.4 | 25.7 | 0.00 | 0.10 | 0.00 | 91 | 996.2 |
| 20260507043358 | 19 | 158 | 12.9 | 27.4 | 0.00 | 0.10 | 0.00 | 91 | 996.2 |
| 20260507042340 | 19 | 180 | 17.7 | 32.2 | 0.00 | 0.10 | 0.00 | 90 | 995.9 |
| 20260507041315 | 19 | 225 | 24.1 | 33.8 | 0.00 | 0.10 | 0.00 | 88 | 995.7 |
| 20260507040302 | 20 | 203 | 19.3 | 37.0 | 0.00 | 0.10 | 0.00 | 84 | 995.6 |
| 20260507034734 | 21 | 203 | 30.6 | 46.7 | 0.00 | 0.10 | 0.00 | 83 | 995.9 |
| 20260507033712 | 22 | 225 | 32.2 | 48.3 | 0.10 | 0.10 | 0.00 | 87 | 995.8 |
| 20260507033200 | 22 | 225 | 37.0 | 48.3 | 0.10 | 0.10 | 0.00 | 88 | 995.6 |
| 20260507032332 | 25 | 22 | 4.8 | 6.4 | 0.00 | 0.00 | 0.00 | 81 | 995.9 |
| 20260507032141 | 22 | 203 | 11.3 | 14.5 | 0.10 | 0.10 | 0.00 | 91 | 995.1 |
| 20260507031635 | 22 | 203 | 9.7 | 12.9 | 0.10 | 0.10 | 0.00 | 91 | 995.0 |
| 20260507031124 | 22 | 203 | 4.8 | 11.3 | 0.10 | 0.10 | 0.00 | 92 | 994.6 |
| 20260507030610 | 21 | 180 | 4.8 | 11.3 | 0.10 | 0.10 | 0.00 | 93 | 994.2 |
| 20260507030107 | 21 | 180 | 3.2 | 6.4 | 0.10 | 0.10 | 0.00 | 93 | 994.4 |
| 20260507025551 | 22 | 203 | 3.2 | 6.4 | 0.10 | 0.10 | 0.10 | 92 | 995.0 |
| 20260507025034 | 22 | 225 | 4.8 | 6.4 | 0.10 | 0.10 | 0.10 | 91 | 995.5 |
| 20260507024534 | 22 | 225 | 1.6 | 3.2 | 0.05 | 0.05 | 0.10 | 89 | 996.0 |
| 20260507024015 | 22 | 45 | 0.0 | 3.2 | 0.00 | 0.00 | 0.00 | 88 | 995.5 |
| 20260507023510 | 22 | 203 | 0.0 | 3.2 | 0.00 | 0.00 | 0.00 | 87 | 995.3 |
| 20260507022957 | 22 | 203 | 3.2 | 6.4 | 0.00 | 0.00 | 0.00 | 88 | 995.3 |
| 20260507022452 | 22 | 203 | 1.6 | 12.9 | 0.00 | 0.00 | 0.00 | 88 | 995.1 |
| 20260507021939 | 22 | 225 | 6.4 | 14.5 | 0.00 | 0.00 | 0.00 | 89 | 996.1 |
| 20260507021427 | 22 | 180 | 8.0 | 14.5 | 0.00 | 0.00 | 0.00 | 91 | 996.2 |
| 20260507020928 | 21 | 0 | 0.0 | 6.4 | 0.00 | 0.00 | 0.00 | 90 | 996.3 |
| 20260507020414 | 21 | 0 | 3.2 | 6.4 | 0.00 | 0.00 | 0.00 | 90 | 996.1 |
| 20260507015353 | 22 | 293 | 0.0 | 0.0 | 0.00 | 0.00 | 0.00 | 90 | 996.2 |
| 20260507015319 | 27 | 23 | 20.9 | 29.0 | 0.00 | 0.00 | 0.00 | 70 | 994.6 |
| 20260507014840 | 22 | 293 | 0.0 | 0.0 | 0.00 | 0.00 | 0.00 | 89 | 996.2 |
| 20260507014331 | 22 | 293 | 0.0 | 3.2 | 0.00 | 0.00 | 0.00 | 89 | 995.9 |
| 20260507014131 | 28 | 22 | 19.3 | 32.2 | 0.00 | 0.00 | 0.00 | 69 | 995.1 |
| 20260507013825 | 22 | 293 | 0.0 | 6.4 | 0.00 | 0.00 | 0.00 | 89 | 995.8 |
| 20260507013307 | 22 | 293 | 3.2 | 6.4 | 0.00 | 0.00 | 0.00 | 89 | 996.1 |
| 20260507012757 | 22 | 293 | 3.2 | 6.4 | 0.00 | 0.00 | 0.00 | 89 | 996.4 |
| 20260507012246 | 22 | 45 | 4.8 | 6.4 | 0.00 | 0.00 | 0.00 | 89 | 996.5 |
| 20260507011227 | 21 | 22 | 4.8 | 6.4 | 0.00 | 0.00 | 0.00 | 90 | 996.5 |
| 20260507010712 | 22 | 22 | 4.8 | 6.4 | 0.00 | 0.00 | 0.00 | 89 | 996.3 |
| 20260507005654 | 22 | 293 | 3.2 | 9.7 | 0.00 | 0.00 | 0.00 | 88 | 996.2 |
| 20260507005152 | 22 | 293 | 4.8 | 9.7 | 0.00 | 0.00 | 0.00 | 89 | 996.3 |
| 20260507004127 | 22 | 22 | 3.2 | 6.4 | 0.00 | 0.00 | 0.00 | 90 | 996.4 |
| 20260507003616 | 22 | 22 | 4.8 | 6.4 | 0.00 | 0.00 | 0.00 | 88 | 996.6 |
| 20260507003338 | 30 | 45 | 17.7 | 32.2 | 0.00 | 0.00 | 0.00 | 58 | 996.3 |
| 20260507002604 | 22 | 293 | 3.2 | 6.4 | 0.00 | 0.00 | 0.00 | 87 | 996.5 |
| 20260507001536 | 23 | 293 | 3.2 | 6.4 | 0.00 | 0.00 | 0.00 | 86 | 996.8 |
| 20260507001042 | 23 | 22 | 4.8 | 6.4 | 0.00 | 0.00 | 0.00 | 86 | 996.8 |
| 20260507000513 | 23 | 293 | 3.2 | 6.4 | 0.00 | 0.00 | 0.00 | 87 | 997.0 |
| 20260506235450 | 23 | 293 | 3.2 | 6.4 | 0.00 | 0.00 | 0.00 | 87 | 997.1 |
| 20260506234943 | 23 | 225 | 3.2 | 9.7 | 0.00 | 0.00 | 0.00 | 87 | 997.1 |
| 20260506234436 | 23 | 225 | 3.2 | 9.7 | 0.00 | 0.00 | 0.00 | 88 | 997.2 |
| 20260506233641 | 31 | 293 | 16.1 | 29.0 | 0.00 | 0.00 | 0.00 | 59 | 996.1 |
| 20260506232918 | 23 | 22 | 0.0 | 6.4 | 0.00 | 0.00 | 0.00 | 86 | 996.7 |
| 20260506231851 | 23 | 22 | 4.8 | 6.4 | 0.00 | 0.00 | 0.00 | 86 | 996.4 |
| 20260506231334 | 23 | 22 | 3.2 | 6.4 | 0.00 | 0.00 | 0.00 | 85 | 996.3 |
| 20260506230831 | 23 | 22 | 3.2 | 6.4 | 0.00 | 0.00 | 0.00 | 85 | 996.4 |
| 20260506230333 | 23 | 22 | 3.2 | 6.4 | 0.00 | 0.00 | 0.00 | 84 | 996.4 |
| 20260506225802 | 24 | 0 | 3.2 | 6.4 | 0.00 | 0.00 | 0.00 | 83 | 996.4 |
| 20260506225250 | 24 | 180 | 0.0 | 0.0 | 0.00 | 0.00 | 0.00 | 83 | 996.7 |
| 20260506224742 | 24 | 203 | 0.0 | 3.2 | 0.00 | 0.00 | 0.00 | 83 | 996.7 |
| 20260506223727 | 25 | 45 | 3.2 | 9.7 | 0.00 | 0.00 | 0.00 | 81 | 996.2 |
| 20260506222705 | 24 | 22 | 3.2 | 6.4 | 0.00 | 0.00 | 0.00 | 82 | 996.1 |
| 20260506222150 | 24 | 22 | 3.2 | 6.4 | 0.00 | 0.00 | 0.00 | 82 | 995.9 |
| 20260506221648 | 24 | 22 | 3.2 | 6.4 | 0.00 | 0.00 | 0.00 | 82 | 995.9 |
| 20260506220622 | 24 | 22 | 4.8 | 9.7 | 0.00 | 0.00 | 0.00 | 81 | 995.7 |
| 20260506220522 | 31 | 293 | 25.7 | 35.4 | 0.00 | 0.00 | 0.00 | 60 | 997.7 |
| 20260506215601 | 25 | 22 | 6.4 | 12.9 | 0.00 | 0.00 | 0.00 | 78 | 995.6 |
| 20260506215053 | 25 | 22 | 6.4 | 17.7 | 0.00 | 0.00 | 0.00 | 77 | 995.7 |
| 20260506214540 | 26 | 22 | 9.7 | 17.7 | 0.00 | 0.00 | 0.00 | 76 | 995.5 |
| 20260506213529 | 26 | 0 | 12.9 | 20.9 | 0.00 | 0.00 | 0.00 | 75 | 995.4 |
| 20260506213005 | 26 | 22 | 12.9 | 20.9 | 0.00 | 0.00 | 0.00 | 74 | 995.4 |
| 20260506212506 | 26 | 0 | 12.9 | 25.7 | 0.00 | 0.00 | 0.00 | 73 | 995.2 |
| 20260506211943 | 27 | 22 | 12.9 | 33.8 | 0.00 | 0.00 | 0.00 | 73 | 995.1 |
| 20260506210933 | 27 | 0 | 22.5 | 33.8 | 0.00 | 0.00 | 0.00 | 71 | 994.8 |
| 20260506204847 | 28 | 22 | 19.3 | 29.0 | 0.00 | 0.00 | 0.00 | 69 | 995.2 |
| 20260506204341 | 28 | 22 | 19.3 | 29.0 | 0.00 | 0.00 | 0.00 | 68 | 995.3 |
| 20260506203822 | 28 | 22 | 22.5 | 29.0 | 0.00 | 0.00 | 0.00 | 67 | 995.3 |
| 20260506203322 | 28 | 22 | 19.3 | 27.4 | 0.00 | 0.00 | 0.00 | 67 | 995.7 |